Location: Strada George Coșbuc
(47.6577°N, 23.5639°E)
Time: 23:06:09
(UTC+03:00)

ISS - Visible Passes

Search period start: 25 September 2020 00:00
Search period end: 05 October 2020 00:00
Orbit: 419 x 420 km, 51.6° (Epoch: 26 September)

Date Brightness Start Highest point End Pass type
(mag) Time Alt. Az. Time Alt. Az. Time Alt. Az.
25 Sep -2.9 20:23:29 10° W 20:26:45 44° N 20:29:11 16° ENE visible
25 Sep -1.3 22:00:39 10° WNW 22:02:09 23° NW 22:02:09 23° NW visible
26 Sep -2.9 21:13:14 10° WNW 21:16:28 42° N 21:16:31 42° N visible
27 Sep -2.8 20:25:45 10° WNW 20:28:58 40° N 20:30:53 20° ENE visible
27 Sep -1.0 22:02:42 10° WNW 22:03:50 19° WNW 22:03:50 19° WNW visible
28 Sep -2.8 19:38:14 10° WNW 19:41:28 40° N 19:44:41 10° ENE visible
28 Sep -3.1 21:15:18 10° WNW 21:18:11 51° NNW 21:18:11 51° NNW visible
29 Sep -3.2 20:27:51 10° WNW 20:31:09 47° NNE 20:32:33 28° ENE visible
29 Sep -0.7 22:04:43 10° WNW 22:05:30 16° WNW 22:05:30 16° WNW visible
30 Sep -2.9 19:40:23 10° WNW 19:43:38 42° N 19:46:52 10° E visible
30 Sep -2.9 21:17:15 10° WNW 21:19:53 51° WNW 21:19:53 51° WNW visible
01 Oct -3.8 20:29:49 10° WNW 20:33:12 75° NNE 20:34:17 39° E visible
01 Oct -0.4 22:06:59 10° W 22:07:15 11° W 22:07:15 11° W visible
02 Oct -3.5 19:42:22 10° WNW 19:45:42 58° NNE 19:48:44 12° E visible
02 Oct -2.1 21:19:18 10° WNW 21:21:42 31° WSW 21:21:42 31° WSW visible
03 Oct -3.3 20:31:45 10° WNW 20:35:03 54° SSW 20:36:12 34° SSE visible
04 Oct -3.7 19:44:14 10° WNW 19:47:37 79° SSW 19:50:46 11° ESE visible
04 Oct -1.2 21:21:53 10° W 21:23:45 15° SW 21:23:45 15° SW visible
